Location: Buckenweiler
(49.0667°N, 10.2500°E)
Time: 21:08:57
(UTC+00:00)

Cosmos 1328 - Pass Details

Date: 18 January 2026
Orbit: 460 x 472 km, 82.5° (Epoch: 18 February)

Event Time Altitude Azimuth Distance (km) Brightness Sun altitude
Exits shadow 06:00:25 - 343° (NNW) 2,243 6.6 -10.5°
Reaches altitude 10° 06:01:52 10° 338° (NNW) 1,650 5.9 -10.3°
Maximum altitude 06:05:19 44° 266° (W) 670 3.9 -9.7°
Drops below altitude 10° 06:08:44 10° 193° (SSW) 1,641 6.3 -9.2°
Sets 06:10:52 0° 187° (S) 2,515 7.4 -8.9°
